Location: Unspecified
(0.0000°N, 0.0000°E)
Time: 13:11:49
(UTC+01:00)

Ariane H10-3 - Visible Passes

Search period start: 21 December 2014 00:00
Search period end: 31 December 2014 00:00
Orbit: 209 x 21933 km, 7.1° (Epoch: 20 December)

Date Brightness Start Highest point End Pass type
(mag) Time Alt. Az. Time Alt. Az. Time Alt. Az.
22 Dec 6.2 15:59:19 10° W 20:20:37 74° SSW 20:28:56 17° ESE visible
23 Dec 6.8 03:12:35 11° E 03:12:35 11° E 03:12:55 10° E visible
23 Dec 5.2 21:21:39 10° W 21:55:44 57° SSW 21:56:10 57° S visible
24 Dec 4.1 04:39:36 87° SSE 04:39:36 87° SSE 04:59:52 10° E visible
24 Dec 6.9 23:19:24 10° WSW 23:22:29 16° WSW 23:22:29 16° WSW visible
25 Dec 5.8 06:05:41 12° W 06:12:19 80° N 08:58:14 10° E visible
26 Dec 6.7 14:56:23 10° W 19:38:22 77° S 19:50:16 10° ESE visible
27 Dec 5.4 19:50:38 10° W 21:11:19 64° SSW 21:15:01 37° SE visible
28 Dec 5.5 03:57:40 35° E 03:57:40 35° E 04:06:25 10° E visible
28 Dec 5.9 22:24:24 10° W 22:37:51 36° SW 22:37:51 36° SW visible
29 Dec 4.7 05:20:17 40° W 05:23:01 80° N 06:04:43 10° E visible
